Zurück zum Katalog

STARLINK-36096

AktivKommunikationVLEO
NORAD 66949·PAYLOAD·🇺🇸 United States

Gestartet Dec 7, 2025 von Vandenberg Space Force Base

Loading…

Nächste Überflüge (nächste 24 Stunden)

TLE

AktuellSource: CelesTrak SupGP

Epoche: Sep 15, 2026, 03:27 UTC

1 66949C 25286AA  26258.14423611 -.00069319  00000+0 -20484-2 0  2589
2 66949  53.1576 194.4395 0001317  83.7765 134.7132 15.34419301    19

Verfolge STARLINK-36096 in Echtzeit mit AllMySat

Download on the App Store